Location: Dessau
(51.7984°N, 12.2168°E)
Time: 08:44:13
(UTC+02:00)

ISS - Visible Passes

Search period start: 24 September 2017 00:00
Search period end: 04 October 2017 00:00
Orbit: 401 x 407 km, 51.6° (Epoch: 24 September)

Date Brightness Start Highest point End Pass type
(mag) Time Alt. Az. Time Alt. Az. Time Alt. Az.
26 Sep -1.9 20:28:18 10° S 20:29:53 17° SSE 20:29:53 17° SSE visible
27 Sep -1.6 19:37:19 10° SSE 19:38:32 12° SE 19:39:44 10° ESE visible
27 Sep -2.0 21:11:13 10° SW 21:12:44 23° SW 21:12:44 23° SW visible
28 Sep -2.9 20:19:12 10° SW 20:22:07 30° SSE 20:22:45 28° SE visible
28 Sep -0.8 21:55:05 10° WSW 21:55:24 12° WSW 21:55:24 12° WSW visible
29 Sep -2.2 19:27:24 10° SSW 19:29:56 21° SE 19:32:28 10° E visible
29 Sep -3.1 21:02:46 10° WSW 21:05:17 47° SW 21:05:17 47° SW visible
30 Sep -3.5 20:10:30 10° SW 20:13:41 49° SSE 20:15:03 28° E visible
30 Sep -1.1 21:46:47 10° W 21:47:42 18° W 21:47:42 18° W visible
01 Oct -2.9 19:18:23 10° SW 19:21:24 34° SSE 19:24:25 10° E visible
01 Oct -3.7 20:54:23 10° W 20:57:23 72° WSW 20:57:23 72° WSW visible
02 Oct -3.8 20:02:01 10° WSW 20:05:17 71° SSE 20:07:01 25° E visible
02 Oct -1.3 21:38:26 10° W 21:39:39 21° W 21:39:39 21° W visible
03 Oct -3.9 20:46:01 10° W 20:49:14 85° W 20:49:14 85° W visible
